Theta_e
304 304 305 305 305 306 305 303 303 302 300 299 298 298 298 298 298 298 299 300 301 303 304 305 305 306 304 305 304 303 302 301 299 297 297 296 295 293 292 291 289 289
303 303 304 305 305 304 304 304 303 303 301 300 300 299 299 298 298 298 298 299 299 300 301 301 303 304 303 303 303 302 301 300 297 296 296 295 294 293 292 290 288 286
302 302 303 304 305 304 303 303 303 303 302 300 300 300 298 298 297 297 298 299 299 299 299 299 299 300 301 301 301 300 298 296 295 293 294 293 292 291 290 288 286 284
301 302 303 303 304 304 302 302 301 301 301 299 299 299 298 297 296 296 297 296 298 299 298 298 298 298 298 298 298 296 296 296 295 293 293 291 290 290 287 286 284 283
301 302 303 303 303 303 301 301 300 300 300 300 299 298 296 295 295 295 295 295 296 295 295 296 296 295 295 295 295 294 293 293 291 291 291 289 288 288 286 285 283 282
299 301 302 303 302 302 301 301 300 300 300 299 299 297 296 295 294 293 293 292 292 292 292 292 292 292 292 293 293 294 292 292 290 290 290 289 287 286 285 284 283 281
298 299 300 301 301 301 300 300 299 298 299 299 297 296 295 293 293 293 292 293 292 292 292 291 291 291 291 291 291 292 291 291 289 289 289 287 286 284 283 283 283 281
296 296 298 298 299 300 299 298 297 297 297 296 296 295 294 293 293 292 292 292 292 292 292 291 291 291 290 290 291 290 289 289 288 288 288 286 285 283 281 281 281 280
294 293 294 293 294 296 297 297 297 297 296 295 294 293 292 293 292 292 291 291 291 291 291 291 291 290 290 290 290 290 289 288 288 288 287 285 284 282 280 280 280 280
292 292 291 292 293 294 295 295 296 296 295 295 294 292 292 292 292 291 291 290 290 290 290 290 289 289 289 289 290 289 289 288 287 287 287 285 284 282 280 279 280 279
291 291 291 292 293 293 293 293 294 294 293 294 293 291 291 291 290 291 290 290 290 289 289 289 289 289 289 288 289 289 288 288 287 286 285 285 284 281 281 280 280 279
291 291 291 292 292 292 292 292 292 293 293 293 293 291 290 290 290 289 290 289 289 289 289 289 289 289 289 288 288 288 287 287 286 285 285 284 283 281 280 280 280 279
291 292 292 292 292 292 291 291 290 291 291 292 291 291 290 289 289 289 289 289 289 288 288 288 288 288 288 288 288 287 287 286 285 284 283 283 282 281 280 279 279 279
293 292 292 292 292 291 291 290 290 289 289 290 289 290 290 290 289 288 288 288 288 288 288 287 287 287 287 287 287 286 286 285 284 283 282 281 280 280 279 279 279 279
293 292 292 291 290 290 290 290 289 288 288 288 288 289 290 290 289 289 288 287 288 287 287 286 286 286 286 286 285 285 285 284 283 282 281 280 279 279 279 278 279 279
292 291 291 290 290 290 290 290 289 288 288 287 288 288 289 289 289 288 288 288 287 287 286 286 286 286 286 287 287 285 284 284 283 282 280 280 279 278 278 278 278 279
290 291 290 290 290 290 289 289 288 288 287 287 287 287 288 288 287 287 287 287 287 286 285 285 285 285 286 288 288 288 284 283 282 281 280 280 279 279 278 278 278 279
291 290 289 289 289 289 289 288 287 287 287 287 287 287 287 287 286 287 287 286 286 285 285 284 284 285 288 288 289 288 286 282 282 281 280 279 279 279 279 278 278 279
291 290 289 289 289 289 288 288 287 287 286 286 286 287 286 286 286 286 286 286 286 285 284 284 284 286 288 288 288 288 287 284 282 281 280 280 279 279 279 279 279 279
290 289 289 289 289 288 287 287 287 286 286 286 286 286 286 286 286 286 286 285 285 285 284 284 284 285 288 288 288 288 289 285 282 281 281 280 279 279 279 279 280 280
290 290 290 289 288 287 287 287 287 287 286 285 285 285 285 285 286 285 285 285 285 284 284 283 283 286 288 288 289 289 288 286 282 281 281 280 279 279 279 280 280 281
290 290 290 289 288 287 287 287 287 286 285 284 284 284 284 285 286 286 285 285 285 284 284 283 283 286 287 288 289 290 288 283 281 281 280 280 279 279 279 280 281 281
290 289 289 288 287 286 286 286 286 285 285 284 283 283 283 284 284 285 285 285 284 284 283 283 283 285 287 288 289 290 287 282 281 280 280 279 279 279 279 280 281 282
289 289 288 288 287 286 286 286 286 285 284 283 284 283 283 283 283 284 284 284 284 284 284 283 283 284 287 288 288 289 285 282 281 280 279 279 279 279 279 280 281 283
288 288 288 287 287 287 286 286 285 284 284 283 283 283 283 283 283 283 284 284 284 284 284 284 283 283 287 288 288 288 285 281 281 280 279 279 278 278 279 280 281 283
287 287 287 287 287 287 286 286 284 283 282 282 282 282 282 281 282 282 282 283 284 283 283 283 282 282 285 288 288 288 285 282 281 280 279 279 278 278 278 279 280 282
Wind_Speed
9 8 9 9 8 8 8 10 9 10 9 8 9 9 10 9 8 10 10 9 9 10 9 9 10 10 9 10 10 10 10 12 11 10 12 12 11 12 12 10 9 10
10 10 9 8 8 7 8 9 10 10 10 9 8 8 8 9 10 10 11 10 9 9 7 8 9 10 10 10 10 9 9 10 11 7 11 12 11 12 12 13 11 8
9 9 10 10 10 10 10 9 9 9 9 9 9 8 8 8 9 9 10 10 10 10 9 7 7 8 9 10 10 10 9 10 10 8 9 11 9 11 11 11 9 10
11 11 11 10 9 10 9 9 9 8 7 8 9 8 7 7 8 9 9 10 10 10 9 8 9 9 9 9 10 9 10 11 10 11 10 8 9 10 10 9 9 8
11 10 10 9 8 8 8 10 10 9 9 9 8 8 7 7 8 8 8 9 9 9 9 10 8 9 9 9 10 9 8 8 7 8 9 10 8 9 9 9 10 10
8 9 9 9 9 9 10 11 10 10 10 9 10 8 8 8 8 9 9 10 9 8 8 7 8 8 8 8 7 9 10 9 9 10 10 11 9 7 8 9 11 11
10 9 10 9 9 10 11 10 10 10 10 9 7 9 8 9 9 10 10 10 10 10 10 9 8 8 7 7 7 8 8 10 10 11 12 10 9 8 6 9 10 11
10 8 9 9 10 10 11 10 10 10 9 7 9 8 9 10 10 9 10 11 10 10 10 9 9 8 8 7 9 9 9 7 10 11 10 10 9 10 8 7 9 11
8 8 8 8 9 10 11 11 10 10 9 10 9 8 8 9 10 10 11 10 10 10 10 9 10 9 9 10 10 11 11 10 10 12 12 12 11 11 10 8 9 10
9 8 8 9 11 10 10 9 9 9 9 10 9 8 10 8 9 10 10 11 10 10 10 10 10 9 9 10 11 11 11 12 11 11 11 12 13 12 11 11 12 11
9 9 11 11 12 10 10 8 8 8 8 10 9 10 9 9 9 9 10 11 11 11 11 11 11 11 11 11 10 10 12 12 12 11 11 12 12 12 12 13 13 13
11 10 13 13 12 11 11 9 8 8 9 9 10 11 10 10 11 10 10 11 10 11 11 12 11 11 12 13 12 11 10 11 11 11 11 11 11 11 12 12 13 13
13 14 13 12 12 11 9 9 9 8 9 11 9 10 11 11 10 11 10 10 11 11 12 12 12 12 12 12 11 11 11 11 11 11 11 10 10 12 11 11 12 13
14 12 11 11 10 9 9 9 9 9 9 8 8 11 12 12 12 12 10 9 11 11 11 11 11 11 11 11 10 11 11 12 12 12 11 10 10 10 10 11 12 13
10 9 9 8 9 9 10 10 10 9 9 9 9 10 10 11 10 11 11 11 10 10 10 10 11 11 10 11 11 11 11 12 13 13 13 12 11 11 11 11 10 10
9 8 9 8 9 11 11 10 10 10 10 10 11 10 10 9 9 10 11 13 12 11 10 9 10 9 12 18 16 13 13 11 11 12 13 13 13 12 11 11 11 11
8 9 8 10 11 9 9 10 11 10 10 11 11 11 11 10 10 11 12 11 12 12 12 10 10 9 17 18 17 18 14 12 12 12 12 13 14 15 14 12 9 8
10 8 9 11 9 11 11 10 10 10 12 12 11 11 11 9 11 12 11 11 10 11 12 11 11 13 19 21 19 18 14 12 12 11 11 12 12 12 11 11 11 10
10 10 11 10 11 11 9 9 11 11 12 12 13 11 8 11 12 11 12 11 12 13 12 12 10 14 19 20 21 20 19 16 11 12 12 11 12 13 13 12 11 11
9 9 11 12 10 9 10 11 11 14 13 11 10 9 12 12 11 13 11 12 13 12 12 11 11 15 20 21 22 23 18 15 10 12 12 12 13 13 12 13 14 13
10 11 13 11 10 10 10 12 13 12 11 11 11 12 12 12 12 12 12 11 11 11 11 11 11 17 21 22 22 20 17 14 9 9 10 10 12 13 14 15 14 14
10 11 11 9 9 9 11 12 12 12 12 9 9 8 8 8 9 10 12 12 11 11 11 11 11 18 20 22 23 18 21 13 10 10 10 10 10 11 10 9 11 12
9 10 10 9 9 10 12 12 11 11 9 7 9 9 10 10 10 10 9 10 11 11 12 11 10 16 22 23 23 21 17 10 10 9 9 9 9 9 11 11 11 11
9 10 11 10 10 12 12 11 10 8 9 9 12 11 11 10 9 9 9 9 11 12 12 11 10 14 21 21 23 23 18 13 11 10 9 10 10 10 9 10 11 15
8 9 10 10 11 12 11 12 11 12 9 8 9 8 10 8 8 8 8 8 9 10 11 11 8 10 18 21 23 22 15 10 11 10 11 10 9 9 8 7 8 10
8 10 10 11 12 10 10 11 8 7 8 9 9 8 8 8 8 8 9 8 7 8 8 8 8 8 13 20 21 18 17 12 10 11 12 11 9 9 9 5 6 8
Wind_Direction
196 196 203 205 209 205 193 193 192 190 194 194 197 198 196 200 189 192 195 197 201 200 199 196 192 191 184 178 180 185 184 185 184 183 184 182 185 179 180 179 180 177
203 201 203 204 205 199 198 192 193 193 193 197 203 198 199 191 195 191 193 197 199 202 196 194 193 188 181 177 179 183 187 182 181 181 182 182 182 179 181 181 182 173
205 207 206 206 205 202 195 192 194 196 193 198 200 201 195 190 189 194 196 197 196 198 192 189 189 190 182 180 178 179 178 177 179 179 178 184 176 181 181 176 170 170
210 208 208 209 206 202 192 188 193 194 195 193 199 198 192 187 184 188 195 197 198 197 196 188 189 187 184 179 172 175 178 181 182 170 173 175 183 176 172 169 163 159
211 213 212 209 206 197 190 194 192 191 193 196 192 190 182 177 181 186 187 193 196 196 193 194 190 187 181 174 171 167 168 167 160 168 166 172 181 172 168 161 159 159
214 217 216 212 202 196 197 198 194 191 191 190 194 184 188 177 181 181 181 183 188 186 187 189 187 182 174 172 170 170 166 166 170 168 171 173 175 183 166 168 159 158
204 207 216 214 210 204 203 200 194 192 193 191 178 191 176 180 181 181 182 186 184 187 186 182 184 184 182 169 174 171 172 173 169 173 172 175 168 172 179 165 163 157
206 206 209 211 214 211 208 201 194 193 188 180 192 187 179 183 184 181 183 183 185 189 188 186 188 185 182 176 176 172 173 173 174 175 176 171 171 170 174 175 160 152
203 207 206 211 215 219 217 208 199 190 182 185 188 182 188 186 184 183 184 184 187 188 186 188 187 185 183 183 184 177 175 179 181 180 176 172 176 176 172 168 158 154
205 204 207 211 215 218 222 217 205 194 181 188 184 177 186 191 186 184 181 183 187 185 185 184 185 185 183 192 186 180 179 181 182 185 182 180 179 175 172 170 164 154
210 204 209 212 216 214 221 217 212 198 188 189 181 185 189 183 189 184 183 184 187 186 186 187 188 184 186 193 192 185 182 180 182 186 186 185 182 177 174 172 168 163
214 208 213 213 212 214 213 211 211 206 196 196 188 187 186 190 185 186 187 187 188 189 189 191 187 187 190 193 191 183 181 182 181 184 188 187 184 179 177 177 169 163
214 214 211 210 208 208 204 204 206 207 203 202 194 191 189 189 191 187 190 186 190 189 192 189 187 189 191 193 191 183 180 180 182 185 186 187 185 181 180 179 170 162
220 216 212 212 205 200 202 202 201 203 207 207 196 200 199 194 189 188 185 187 191 193 192 188 188 190 192 191 190 186 181 184 183 180 181 185 181 181 178 176 173 170
217 213 213 209 202 200 201 202 200 199 200 202 205 209 205 200 192 186 183 192 196 193 190 190 191 192 190 186 184 184 186 185 183 181 177 177 178 179 178 175 173 169
213 209 205 200 201 206 204 198 196 197 198 203 207 209 206 198 193 192 193 194 192 193 194 193 196 194 192 189 187 183 184 184 181 181 178 175 173 176 178 176 173 171
213 214 199 203 209 204 200 197 197 194 199 204 206 203 204 200 191 194 199 197 195 193 193 196 198 197 191 190 187 183 179 178 178 179 180 179 178 175 172 171 170 166
216 207 203 212 203 207 202 197 192 194 201 204 202 201 203 193 198 201 198 196 196 194 196 196 198 194 190 191 186 179 176 177 178 177 180 183 175 172 169 165 161 161
211 204 209 208 209 207 198 191 196 200 202 201 204 200 188 196 202 197 202 198 195 195 197 195 198 192 192 189 188 180 178 177 182 178 173 176 175 174 168 165 163 162
210 209 214 214 208 201 195 198 198 205 205 201 197 191 198 200 198 200 200 201 199 196 195 194 197 193 192 191 191 189 179 175 179 176 176 174 174 171 169 168 166 163
212 213 218 216 207 200 198 204 204 207 201 199 196 198 197 200 199 200 203 201 198 194 194 195 198 192 192 191 192 186 171 170 172 171 173 174 177 175 174 175 172 169
216 220 222 217 207 202 205 210 209 205 203 195 195 201 204 201 207 202 202 201 198 194 194 198 197 192 192 191 190 178 169 174 170 173 174 175 175 176 173 174 172 171
217 220 223 218 208 206 210 211 208 207 202 182 193 198 198 202 204 202 202 199 198 199 197 199 196 193 192 190 187 172 166 173 169 173 174 169 169 170 176 177 179 175
215 214 219 215 207 211 211 211 207 203 197 185 195 194 202 202 198 199 200 200 199 202 200 197 196 193 189 185 184 180 174 173 170 167 166 172 175 177 175 178 178 178
217 216 218 213 212 213 206 204 200 199 191 182 198 196 203 192 192 196 199 203 206 205 203 200 193 195 190 188 188 182 163 167 167 168 168 180 174 173 172 171 169 175
216 216 219 215 218 213 207 206 191 178 179 184 195 193 192 185 188 192 194 200 194 196 198 195 180 187 191 188 187 173 163 168 177 175 178 173 173 169 161 158 164 168